Regional Weather Roundup
Issued by NWS Upton, NY

Current Version | Previous Version | Graphics & Text | Print | Product List | Glossary Off
Versions: 1 2 3 4 5 6 7 8 9 10 11 12 13 14 15 16 17 18 19 20 21 22 23 24 25 26 27 28 29 30 31 32 33 34 35 36 37 38 39 40 41 42 43 44 45 46 47 48 49 50

000
ASUS41 KOKX 210705
RWROKX
REGIONAL WEATHER ROUNDUP
NATIONAL WEATHER SERVICE NEW YORK NY
300 AM EDT MON JUL 21 2014

NOTE: "FAIR" INDICATES FEW OR NO CLOUDS BELOW 12,000 FEET WITH NO
SIGNIFICANT WEATHER AND/OR OBSTRUCTIONS TO VISIBILITY.

NYZ071-072-176-178-NJZ106-104-210800-
NEW YORK CITY METRO AREA


CITY           SKY/WX    TMP DP  RH WIND       PRES   REMARKS
CENTRAL PARK   CLEAR     68  62  81 CALM      30.16F
LAGUARDIA APRT PTCLDY    69  61  75 E6        30.13F
KENNEDY INTL   PTCLDY    67  61  81 CALM      30.14F
NEWARK/LIBERTY CLEAR     68  62  81 CALM      30.14S
BRNX BOT. GARD   N/A     64  57  77 N1        30.16R
TETERBORO      CLEAR     68  58  70 CALM      30.13S
$$

NYZ177-179-078>081-210800-
LONG ISLAND NEW YORK

CITY           SKY/WX    TMP DP  RH WIND       PRES   REMARKS
FARMINGDALE    CLEAR     64  60  87 N3        30.14S
ISLIP          CLEAR     64  59  83 NE5       30.12F
SHIRLEY        CLEAR     62  59  90 N3        30.14F
WESTHAMPTON    CLEAR     56  53  90 CALM      30.15S
MONTAUK POINT    N/A     65  61  87 N6        30.14S
$$

NYZ052-065-067-210800-
HUDSON VALLEY

CITY           SKY/WX    TMP DP  RH WIND       PRES   REMARKS
WHITE PLAINS   CLEAR     62  58  86 CALM      30.14F
NEWBURGH       CLEAR    N/A N/A N/A CALM      30.16S
MONTGOMERY     CLEAR     59  58  96 CALM      30.15S FOG
POUGHKEEPSIE   CLEAR     61  58  90 MISG      30.14S
ALBANY         PTCLDY    69  55  60 SE3       30.13F
$$

NJZ001-105-106-008-010-013-015-019>022-104-210800-
NEW JERSEY

CITY           SKY/WX    TMP DP  RH WIND       PRES   REMARKS
NEWARK/LIBERTY CLEAR     68  62  81 CALM      30.14S
TETERBORO      CLEAR     68  58  70 CALM      30.13S
CALDWELL       CLEAR     62  59  90 CALM      30.15F
MORRISTOWN     CLEAR     63  59  88 CALM      30.15S
SOMERVILLE     PTCLDY    62  59  90 CALM      30.13S
LINDEN         FAIR      68  64  85 CALM      30.15S
SUSSEX         CLEAR     61  58  90 CALM      30.15S
ANDOVER          N/A     60  58  92 CALM      30.16S
TRENTON        CLEAR     64  61  90 NW3       30.14F
MILLVILLE      CLEAR    N/A N/A N/A W3        30.15R
ATLANTIC CITY  CLEAR     61  60  97 NW6       30.14R
WRIGHTSTOWN    CLEAR     63  61  94 NW2       30.13S
TOMS RIVER     CLEAR     59  57  94 CALM      30.14S
BELMAR         CLEAR     63  57  82 CALM      30.14S
$$

PAZ047>061-062-071-210800-
EASTERN PENNSYLVANIA

CITY           SKY/WX    TMP DP  RH WIND       PRES   REMARKS
PHILADELPHIA   CLEAR     69  59  70 SW3       30.16R
ALLENTOWN      CLEAR     67  60  78 CALM      30.15F
SCRANTON       CLEAR     64  59  83 CALM      30.15R
$$

CTZ002-004>006-009-010-012-RIZ004-006-007-MAZ004-011-015-210800-
SOUTHERN NEW ENGLAND
 IN CT

CITY           SKY/WX    TMP DP  RH WIND       PRES   REMARKS
BRADLEY INTL   PTCLDY    61  55  81 CALM      30.15S
HARTFORD       CLEAR     63  56  78 N3        30.15S
DANBURY        CLEAR     57  55  93 CALM      30.17S
WTRBRY/OXFORD  CLEAR     57  52  82 CALM      30.17S
BRIDGEPORT     CLEAR     65  61  87 N3        30.14S
MERIDEN        CLEAR     60  58  92 CALM      30.15F
NEW HAVEN      CLOUDY    64  60  87 N3        30.15S
CHESTER        PTSUNNY   61  57  88 N5        30.16S
GROTON         MOCLDY    62  59  90 N7        30.13S
WILLIMANTIC    CLEAR     58  55  90 N5        30.15F

 IN RI

CITY           SKY/WX    TMP DP  RH WIND       PRES   REMARKS
PROVIDENCE     CLOUDY    63  61  93 NE3       30.15F
BLOCK ISLAND   CLOUDY    64  61  88 NE7       30.13S
WESTERLY       CLOUDY    64  59  83 N6        30.14S

 IN MA

CITY           SKY/WX    TMP DP  RH WIND       PRES   REMARKS
BOSTON         PTCLDY    62  59  90 N3        30.16S
WORCESTER      CLEAR     59  56  89 N5        30.17F
WESTFIELD      CLEAR     59  56  89 CALM      30.16F
PROVINCETOWN   CLOUDY    63  61  94 N7        30.14S
NANTUCKET      FOG       65  64  97 NE15      30.08F VSB 1
$$

ANZ330-335-338-340-345-350-353-355-210800-
COASTAL MARINE OBSERVATIONS


STATION/POSITION TIME  SKY/WX   TEMP    WIND        PRES    VSBY  WAVE
                                AIR SEA DIR/SP/G                  HT/PER
                 (UTC)          (F)     (DEG/KT/KT) (MB)    (MI)  (FT/S)
NY HARB ENTRANCE NOT AVBL
4S FIRE IS       NOT AVBL
23SW MTP         0700            67 70              1019.1          5/ 6
HUDSON CANYON    0700            69 72   40/ 14/ 16 1018.9          5/ 6
EXECUTION ROCKS  0700            68 70   90/  4/  6   N/A
WESTERN LI SOUND 0700            67      30/  4/  4   N/A           0
CENTRAL LI SOUND 0600            67 71   50/  8/ 12   N/A           1/ 3
EASTERN LI SOUND 0600            64 66   10/  8/ 10   N/A
ROBBINS REEF     0700            69     310/  2/  2   N/A
$$


>>>>>>>>>>>>>>>>>>>>>>>>>>>> KEY <<<<<<<<<<<<<<<<<<<<<<<<<<<
>                                                          <
>     SKY/WX - SKY CONDITION/PRESENT WEATHER               <
>     TMP    - TEMPERATURE IN FAHRENHEIT                   <
>     DP     - DEWPOINT IN FAHRENHEIT                      <
>     RH     - RELATIVE HUMIDITY IN PERCENT                <
>     WIND   - DIRECTION AND SPEED IN MPH                  <
>     PRES   - MEAN SEA LEVEL PRESSURE IN INCHES OF HG     <
>     WCI    - WIND CHILL INDEX                            <
>     VSB    - VISIBILITY IN MILES                         <
>     HX     - HEAT INDEX                                  <
>     TC     - TEMPERATURE IN CELSIUS                      <
>     VRB    - VARIABLE WIND DIRECTION                     <
>                                                          <
>>>>>>>>>>>>>>>>>>>>>>>>>>>> KEY <<<<<<<<<<<<<<<<<<<<<<<<<<<





USA.gov is the U.S. government's official web portal to all federal, state and local government web resources and services.